[[{"header":{"parameterUnit":"m.s-1","parameterCategory":2,"la1":30.2991,"la2":30.254,"lo1":-89.0895,"lo2":-89.0444,"dy":0.0017,"dx":0.0017,"nx":28,"ny":28,"refTime":"2023-08-18T09:00:00:Z","depth":"0","parameterNumber":2,"parameterNumberName":"U-component_of_CURRENTS"},"data":[0,0,0,0,0,0,0,0,0,0,0,0,0,0,0,0,0,0,0,0,0,0,0,0,0,0,0,0,0,0,0,0,0,0,0,0,0,0,0,0,0,0,0,0,0,0,0,0,0,0,0,0,0,0,0,0,0,0,-0.0537,-0.0537,0,-0.0487,-0.0486,-0.0485,-0.0473,-0.0474,-0.0474,-0.0475,-0.0409,-0.0407,-0.0405,0,0,0,0,0,0,0,0,0,0,0,0,0,-0.0614,-0.0612,-0.0537,-0.0537,-0.0537,-0.0487,-0.0486,-0.0485,-0.0473,-0.0474,-0.0474,-0.0475,-0.041,-0.0407,-0.0405,0,0,0,0,0,0,0,0,0,0,0,0,0,-0.057,-0.0612,-0.0537,-0.0527,-0.0526,-0.0487,-0.0486,-0.0485,-0.0473,-0.0474,-0.0475,-0.0475,-0.0411,-0.0408,-0.0404,-0.0362,0,0,-0.0393,-0.0392,0,0,0,0,0,0,0,0,-0.0573,-0.0567,-0.0529,-0.0528,-0.0527,-0.0491,-0.0489,-0.0444,-0.0472,-0.0489,-0.0475,-0.0476,-0.0437,-0.0431,-0.0414,-0.0359,-0.0356,-0.0393,-0.0391,-0.0389,-0.0388,0,0,0,0,0,0,0,-0.0576,-0.0569,-0.0514,-0.0529,-0.0527,-0.0523,-0.0517,-0.0481,-0.0455,-0.0488,-0.0487,-0.0488,-0.0436,-0.0418,-0.0413,-0.0355,-0.0393,-0.039,-0.0388,-0.0386,-0.0286,-0.0286,0,0,0,0,0,0,-0.0588,-0.0572,-0.0515,-0.0512,-0.0557,-0.0521,-0.0515,-0.0498,-0.0455,-0.0451,-0.0487,-0.0487,-0.0423,-0.0417,-0.0411,-0.0368,-0.0389,-0.0386,-0.0384,-0.0287,-0.0286,-0.0286,0,0,0,0,0,0,-0.059,-0.0583,-0.0517,-0.0545,-0.0537,-0.0519,-0.05,-0.0497,-0.0481,-0.0456,-0.0451,-0.0476,-0.0424,-0.0416,-0.0383,-0.0365,-0.0384,-0.0381,-0.0288,-0.0287,-0.0286,-0.0277,0,0,0,0,0,0,-0.0592,-0.0583,-0.0581,-0.0545,-0.0536,-0.0496,-0.05,-0.0495,-0.0481,-0.0481,-0.0444,-0.0439,-0.0424,-0.0389,-0.038,-0.0361,-0.0378,-0.0288,-0.0287,-0.0286,-0.0278,-0.0276,-0.0274,0,0,0,0,0,-0.0594,-0.058,-0.058,-0.0574,-0.053,-0.0496,-0.0489,-0.0478,-0.048,-0.0468,-0.0449,-0.044,-0.0377,-0.0385,-0.0375,-0.0354,-0.0289,-0.0287,-0.0286,-0.0279,-0.0277,-0.0275,0,0,0,0,0,0,-0.0605,-0.0577,-0.0576,-0.0553,-0.0531,-0.0495,-0.0481,-0.0475,-0.0448,-0.0447,-0.0427,-0.042,-0.0381,-0.0372,-0.0382,-0.0325,-0.0333,-0.0329,-0.0331,-0.0328,-0.0326,-0.0347,-0.0376,0,0,0,0,0,-0.0609,-0.059,-0.0566,-0.0545,-0.0532,-0.0506,-0.0493,-0.0483,-0.0456,-0.0445,-0.0425,-0.04,-0.0365,-0.0353,-0.032,-0.0288,-0.0298,-0.0271,-0.0269,-0.0267,-0.0278,-0.0282,-0.0282,-0.0282,-0.0282,-0.0282,0,0,-0.0609,-0.0589,-0.0581,-0.0547,-0.0523,-0.0501,-0.0499,-0.047,-0.0459,-0.044,-0.0415,-0.0384,-0.0354,-0.0317,-0.03,-0.0309,-0.0271,-0.0266,-0.0265,-0.0276,-0.0281,-0.0281,-0.0282,-0.0281,-0.0281,-0.0281,0,0,-0.0585,-0.0576,-0.055,-0.0533,-0.0503,-0.0493,-0.0487,-0.0453,-0.0446,-0.042,-0.0398,-0.0367,-0.0325,-0.0299,-0.028,-0.025,-0.0254,-0.0235,-0.0247,-0.0251,-0.0251,-0.0252,-0.026,-0.0262,-0.0243,-0.0243,-0.0243,0,-0.0582,-0.0553,-0.0538,-0.0507,-0.0496,-0.049,-0.0463,-0.0453,-0.0419,-0.0412,-0.0417,-0.0349,-0.0319,-0.0273,-0.0264,-0.0244,-0.0254,-0.0256,-0.025,-0.0251,-0.0251,-0.026,-0.0262,-0.0242,-0.0242,-0.0242,-0.0242,0,-0.0546,-0.0523,-0.0501,-0.047,-0.0455,-0.0431,-0.0421,-0.0414,-0.0414,-0.0406,-0.0369,-0.0334,-0.03,-0.0278,-0.0261,-0.0238,-0.0245,-0.0241,-0.0259,-0.0251,-0.026,-0.0262,-0.0241,-0.0241,-0.0242,-0.0242,0,0,-0.0517,-0.0485,-0.0476,-0.0464,-0.0437,-0.0419,-0.0408,-0.0395,-0.0394,-0.0377,-0.0366,-0.0309,-0.0299,-0.0278,-0.0246,-0.0251,-0.0254,-0.0254,-0.0254,-0.0268,-0.0272,-0.0248,-0.0248,-0.0253,-0.0254,-0.0254,-0.0275,0,-0.0488,-0.0445,-0.0435,-0.0403,-0.038,-0.0383,-0.0377,-0.0369,-0.0369,-0.0363,-0.034,-0.0311,-0.0296,-0.0273,-0.0275,-0.0253,-0.026,-0.025,-0.0272,-0.0273,-0.0258,-0.025,-0.0195,-0.0206,-0.0277,-0.0277,-0.0277,0,-0.0446,-0.0427,-0.0391,-0.0378,-0.0368,-0.0358,-0.0358,-0.0352,-0.0349,-0.0348,-0.033,-0.0313,-0.0292,-0.029,-0.0283,-0.0279,-0.0278,-0.0277,-0.0277,-0.0263,-0.0253,-0.0225,-0.0207,-0.0111,-0.028,-0.028,-0.028,0,-0.0428,-0.0395,-0.0376,-0.0367,-0.0351,-0.0344,-0.0347,-0.0342,-0.0339,-0.0335,-0.0331,-0.0315,-0.03,-0.0306,-0.0291,-0.0293,-0.0299,-0.0299,-0.028,-0.0278,-0.0241,-0.0235,-0.0139,-0.0307,-0.0307,-0.0307,-0.0307,0,-0.0389,-0.0365,-0.0372,-0.0353,-0.0339,-0.0335,-0.0328,-0.0326,-0.0328,-0.0317,-0.0317,-0.0304,-0.0308,-0.0303,-0.0302,-0.0294,-0.0307,-0.0285,-0.0282,-0.0234,-0.0228,-0.0151,-0.0069,-0.0308,-0.0308,-0.0308,-0.0307,0,-0.0327,-0.0342,-0.0318,-0.0319,-0.0318,-0.0305,-0.0309,-0.031,-0.0317,-0.0302,-0.0298,-0.0301,-0.0294,-0.0293,-0.0298,-0.0298,-0.028,-0.0288,-0.0233,-0.0223,-0.0121,-0.004,-0.0163,-0.02,-0.0283,-0.0283,-0.0282,0,-0.0278,-0.0259,-0.0278,-0.028,-0.0271,-0.0269,-0.0268,-0.0288,-0.0291,-0.0293,-0.0283,-0.0277,-0.0254,-0.0259,-0.0259,-0.0257,-0.025,-0.0215,-0.0204,-0.0106,-0.0014,-0.0167,-0.02,-0.0152,-0.015,-0.0149,-0.0148,0,-0.0167,-0.0192,-0.0187,-0.0202,-0.0208,-0.0213,-0.0219,-0.0227,-0.025,-0.0243,-0.0229,-0.0211,-0.0211,-0.0172,-0.0174,-0.0181,-0.019,-0.0191,-0.0099,0.0093,-0.0059,-0.0094,-0.0151,-0.0137,-0.0139,-0.0139,-0.014,-0.014,-0.0076,-0.0068,-0.0092,-0.0096,-0.0133,-0.0146,-0.0126,-0.016,-0.0156,-0.0121,-0.0152,-0.0075,-0.0023,-0.0017,-0.0063,-0.0012,-0.0125,0.0034,0.0118,-0.0057,-0.0072,-0.0111,-0.0084,-0.0085,-0.0085,-0.0086,-0.0086,0,0.0073,0.0047,0.0027,-0.0003,-0.003,-0.0066,-0.0078,-0.0049,-0.0033,-0.0013,0.0018,0.0178,0.0231,0.0241,0.0301,0.0328,0.0134,0.0357,0.0212,0.0159,0.0153,0.0188,0.0287,0.0287,0.0287,0.0287,0.0287,0.0287,0.0155,0.0176,0.0147,0.0132,0.0084,0.0111,0.012,0.0139,0.0166,0.0268,0.0368,0.0416,0.0547,0.0727,0.078,0.0714,0.0583,0.0524,0.0464,0.0612,0.0588,0.0565,0.0614,0.0802,0.0802,0.0332,0.0331,0.033]},{"header":{"parameterUnit":"m.s-1","parameterCategory":2,"la1":30.2991,"la2":30.254,"lo1":-89.0895,"lo2":-89.0444,"dy":0.0017,"dx":0.0017,"nx":28,"ny":28,"refTime":"2023-08-18T09:00:00:Z","depth":"0","parameterNumber":3,"parameterNumberName":"V-component_of_CURRENTS"},"data":[0,0,0,0,0,0,0,0,0,0,0,0,0,0,0,0,0,0,0,0,0,0,0,0,0,0,0,0,0,0,0,0,0,0,0,0,0,0,0,0,0,0,0,0,0,0,0,0,0,0,0,0,0,0,0,0,0,0,-0.0311,-0.0312,0,-0.0272,-0.0271,-0.027,-0.0241,-0.0242,-0.0242,-0.0243,-0.0234,-0.0233,-0.0232,0,0,0,0,0,0,0,0,0,0,0,0,0,-0.0272,-0.0272,-0.0311,-0.0312,-0.0312,-0.0272,-0.0271,-0.027,-0.0241,-0.0242,-0.0242,-0.0243,-0.0234,-0.0233,-0.0232,0,0,0,0,0,0,0,0,0,0,0,0,0,-0.0258,-0.0273,-0.0311,-0.0299,-0.0299,-0.0273,-0.0271,-0.0269,-0.0241,-0.0242,-0.0243,-0.0243,-0.0234,-0.0233,-0.0232,-0.0208,0,0,-0.0228,-0.0228,0,0,0,0,0,0,0,0,-0.0259,-0.0259,-0.0301,-0.03,-0.0299,-0.027,-0.0254,-0.0253,-0.0241,-0.0254,-0.0243,-0.0244,-0.0254,-0.0251,-0.0229,-0.0208,-0.0207,-0.0228,-0.0228,-0.0227,-0.0227,0,0,0,0,0,0,0,-0.026,-0.026,-0.0287,-0.0301,-0.03,-0.0266,-0.0265,-0.0252,-0.0243,-0.0252,-0.0253,-0.0262,-0.0252,-0.023,-0.0229,-0.0207,-0.0228,-0.0227,-0.0227,-0.0226,-0.018,-0.018,0,0,0,0,0,0,-0.0287,-0.0261,-0.0288,-0.0287,-0.0291,-0.0267,-0.0265,-0.0271,-0.0243,-0.0241,-0.0261,-0.0261,-0.0231,-0.023,-0.0228,-0.0232,-0.0227,-0.0226,-0.0225,-0.0181,-0.018,-0.018,0,0,0,0,0,0,-0.0286,-0.0289,-0.029,-0.028,-0.0279,-0.0268,-0.0275,-0.027,-0.0243,-0.0251,-0.0248,-0.0239,-0.0232,-0.023,-0.0234,-0.0231,-0.0225,-0.0224,-0.0181,-0.0181,-0.018,-0.0219,0,0,0,0,0,0,-0.0285,-0.0289,-0.0286,-0.0282,-0.0281,-0.0275,-0.0275,-0.0269,-0.0252,-0.025,-0.0231,-0.0231,-0.0233,-0.0236,-0.0233,-0.0229,-0.0224,-0.0182,-0.0181,-0.018,-0.0219,-0.022,-0.0221,0,0,0,0,0,-0.0283,-0.0277,-0.0286,-0.029,-0.0283,-0.0276,-0.027,-0.0259,-0.025,-0.0235,-0.0239,-0.0231,-0.0227,-0.0236,-0.0232,-0.0228,-0.0183,-0.0181,-0.018,-0.0218,-0.022,-0.0221,0,0,0,0,0,0,-0.0245,-0.0275,-0.0284,-0.0284,-0.0285,-0.0274,-0.0265,-0.0251,-0.0235,-0.0238,-0.0234,-0.0234,-0.0234,-0.022,-0.0229,-0.0208,-0.0199,-0.0197,-0.0228,-0.023,-0.0231,-0.024,-0.0223,0,0,0,0,0,-0.0243,-0.025,-0.027,-0.0265,-0.0276,-0.0266,-0.0257,-0.0251,-0.0247,-0.0237,-0.0228,-0.0221,-0.0222,-0.0221,-0.0214,-0.0205,-0.0203,-0.0194,-0.0195,-0.0197,-0.0199,-0.0204,-0.0206,-0.0176,-0.0176,-0.0176,0,0,-0.0222,-0.0243,-0.0243,-0.0259,-0.0262,-0.0264,-0.026,-0.0251,-0.0244,-0.0242,-0.0225,-0.0225,-0.0221,-0.022,-0.0216,-0.0212,-0.0203,-0.0195,-0.0197,-0.0199,-0.0203,-0.0206,-0.0209,-0.0175,-0.0175,-0.0175,0,0,-0.0202,-0.0215,-0.0225,-0.0231,-0.0251,-0.0248,-0.0247,-0.024,-0.0233,-0.0225,-0.0227,-0.0236,-0.0213,-0.0225,-0.0227,-0.0225,-0.021,-0.0203,-0.0219,-0.0224,-0.0227,-0.023,-0.0235,-0.0238,-0.0204,-0.0204,-0.0204,0,-0.0178,-0.0202,-0.0219,-0.0236,-0.0242,-0.0244,-0.0249,-0.0239,-0.0225,-0.0232,-0.0226,-0.0223,-0.0221,-0.0241,-0.0242,-0.0231,-0.0225,-0.0221,-0.0228,-0.0231,-0.0233,-0.0237,-0.024,-0.0205,-0.0205,-0.0205,-0.0205,0,-0.0181,-0.0193,-0.02,-0.0229,-0.0227,-0.023,-0.0242,-0.0231,-0.0226,-0.0226,-0.0239,-0.0247,-0.0249,-0.0244,-0.0245,-0.0255,-0.0243,-0.0234,-0.0232,-0.0239,-0.0242,-0.0245,-0.0208,-0.0207,-0.0207,-0.0206,0,0,-0.0145,-0.0196,-0.0196,-0.0215,-0.0228,-0.0229,-0.0227,-0.0239,-0.0247,-0.0242,-0.0257,-0.0268,-0.0275,-0.0276,-0.0278,-0.0283,-0.0298,-0.0261,-0.026,-0.028,-0.0303,-0.0375,-0.0384,-0.0286,-0.0286,-0.0287,-0.0301,0,-0.0147,-0.0184,-0.02,-0.0208,-0.0228,-0.0232,-0.0233,-0.0238,-0.0244,-0.0255,-0.0279,-0.0291,-0.0286,-0.0293,-0.0301,-0.0298,-0.0304,-0.0295,-0.0281,-0.0281,-0.0356,-0.0389,-0.0396,-0.0417,-0.0304,-0.0304,-0.0304,0,-0.0147,-0.0178,-0.0204,-0.0226,-0.0236,-0.0231,-0.0245,-0.0248,-0.0271,-0.028,-0.0303,-0.0311,-0.0334,-0.032,-0.0335,-0.0324,-0.0314,-0.0311,-0.0311,-0.0367,-0.0358,-0.0388,-0.0425,-0.0315,-0.0308,-0.0307,-0.0307,0,-0.0135,-0.0169,-0.0196,-0.0204,-0.0233,-0.0235,-0.024,-0.0256,-0.0272,-0.0296,-0.0309,-0.0336,-0.0351,-0.0347,-0.035,-0.0332,-0.0361,-0.0337,-0.0395,-0.0399,-0.0399,-0.0404,-0.0342,-0.0342,-0.0342,-0.0342,-0.0342,0,-0.0135,-0.0147,-0.0194,-0.021,-0.0225,-0.0239,-0.0257,-0.0262,-0.029,-0.0314,-0.0325,-0.0347,-0.0353,-0.0371,-0.0361,-0.0405,-0.0374,-0.0414,-0.0417,-0.0413,-0.0419,-0.0318,-0.0259,-0.0343,-0.0342,-0.0342,-0.0342,0,-0.0112,-0.015,-0.0176,-0.0216,-0.0224,-0.0231,-0.0259,-0.0284,-0.0299,-0.0327,-0.0333,-0.036,-0.0396,-0.0414,-0.042,-0.0435,-0.0399,-0.0468,-0.0473,-0.0479,-0.0453,-0.0397,-0.0338,-0.0227,-0.0543,-0.0545,-0.0547,0,-0.0106,-0.0127,-0.0175,-0.0191,-0.0207,-0.0229,-0.0254,-0.0282,-0.0309,-0.0334,-0.0352,-0.0392,-0.0428,-0.0495,-0.0553,-0.0593,-0.0448,-0.0593,-0.0577,-0.0472,-0.0409,-0.0328,-0.0229,-0.0578,-0.0579,-0.0581,-0.0582,0,-0.0089,-0.0111,-0.0138,-0.0178,-0.0204,-0.0243,-0.0273,-0.0291,-0.0328,-0.034,-0.0363,-0.0389,-0.0504,-0.0566,-0.065,-0.0671,-0.0494,-0.0628,-0.0503,-0.0435,-0.0355,-0.0243,-0.0538,-0.0595,-0.0594,-0.0593,-0.0592,-0.0592,-0.0065,-0.0076,-0.012,-0.0149,-0.019,-0.0236,-0.0243,-0.0285,-0.0308,-0.03,-0.035,-0.0334,-0.0446,-0.0598,-0.0661,-0.0681,-0.0611,-0.0612,-0.0552,-0.0478,-0.0374,-0.0721,-0.0799,-0.0799,-0.0799,-0.0798,-0.0798,0,-0.004,-0.0058,-0.0087,-0.013,-0.0166,-0.0198,-0.0244,-0.0241,-0.0243,-0.0236,-0.0243,-0.0202,-0.0349,-0.0433,-0.0558,-0.0556,-0.0475,-0.0493,-0.0331,-0.0229,-0.0532,-0.0536,-0.0581,-0.0581,-0.0581,-0.0581,-0.0581,-0.0581,-0.0025,-0.0044,-0.0062,-0.0094,-0.012,-0.013,-0.0139,-0.0144,-0.0124,-0.0033,0.0069,0.0112,0.0142,-0.0179,-0.0293,-0.033,-0.0101,-0.0189,-0.0027,-0.0208,-0.0212,-0.0215,-0.0203,-0.0177,-0.0176,0.0316,0.032,0.0323]}],[{"header":{"parameterUnit":"m.s-1","parameterCategory":2,"la1":30.2991,"la2":30.254,"lo1":-89.0895,"lo2":-89.0444,"dy":0.0017,"dx":0.0017,"nx":28,"ny":28,"refTime":"2023-08-18T09:00:00:Z","depth":"2","parameterNumber":2,"parameterNumberName":"U-component_of_CURRENTS"},"data":[0,0,0,0,0,0,0,0,0,0,0,0,0,0,0,0,0,0,0,0,0,0,0,0,0,0,0,0,0,0,0,0,0,0,0,0,0,0,0,0,0,0,0,0,0,0,0,0,0,0,0,0,0,0,0,0,0,0,-0.2101,-0.2101,0,-0.2083,-0.2083,-0.2082,-0.206,-0.206,-0.206,-0.206,-0.2,-0.1998,-0.1997,0,0,0,0,0,0,0,0,0,0,0,0,0,-0.2158,-0.2156,-0.2101,-0.2101,-0.2101,-0.2083,-0.2083,-0.2082,-0.206,-0.206,-0.206,-0.206,-0.2,-0.1999,-0.1997,0,0,0,0,0,0,0,0,0,0,0,0,0,-0.2133,-0.2156,-0.2101,-0.209,-0.2089,-0.2083,-0.2083,-0.2082,-0.206,-0.206,-0.206,-0.206,-0.2001,-0.1999,-0.1997,-0.1987,0,0,-0.199,-0.1989,0,0,0,0,0,0,0,0,-0.2135,-0.2131,-0.2092,-0.2091,-0.209,-0.2076,-0.2081,-0.2049,-0.206,-0.2069,-0.206,-0.2059,-0.2023,-0.2019,-0.2013,-0.1984,-0.1981,-0.199,-0.1988,-0.1987,-0.1987,0,0,0,0,0,0,0,-0.2136,-0.2132,-0.2092,-0.2092,-0.209,-0.21,-0.2095,-0.2075,-0.2045,-0.2068,-0.2067,-0.2068,-0.2022,-0.2015,-0.2012,-0.1981,-0.199,-0.1988,-0.1986,-0.1985,-0.1919,-0.1919,0,0,0,0,0,0,-0.2141,-0.2133,-0.2092,-0.2091,-0.2115,-0.2099,-0.2094,-0.2078,-0.2046,-0.2041,-0.2069,-0.2068,-0.2019,-0.2014,-0.2009,-0.1965,-0.1987,-0.1985,-0.1984,-0.192,-0.1919,-0.1919,0,0,0,0,0,0,-0.2142,-0.2137,-0.2093,-0.2115,-0.211,-0.2098,-0.2081,-0.2078,-0.2059,-0.2047,-0.2042,-0.2051,-0.2019,-0.2012,-0.199,-0.1964,-0.1984,-0.1982,-0.192,-0.1919,-0.1919,-0.1897,0,0,0,0,0,0,-0.2143,-0.2137,-0.2116,-0.2115,-0.2109,-0.2087,-0.2081,-0.2078,-0.2062,-0.206,-0.203,-0.2025,-0.2018,-0.1994,-0.1988,-0.1961,-0.1981,-0.1921,-0.192,-0.1919,-0.1898,-0.1896,-0.1894,0,0,0,0,0,-0.2145,-0.2116,-0.2114,-0.2109,-0.2083,-0.2087,-0.2084,-0.2075,-0.2061,-0.2054,-0.2038,-0.2025,-0.1984,-0.1992,-0.1985,-0.1957,-0.1921,-0.192,-0.1919,-0.1899,-0.1896,-0.1894,0,0,0,0,0,0,-0.2125,-0.2111,-0.2109,-0.2075,-0.2082,-0.2084,-0.2065,-0.2066,-0.2046,-0.2032,-0.2022,-0.2017,-0.1984,-0.1979,-0.1988,-0.1938,-0.1949,-0.1947,-0.1936,-0.1933,-0.1931,-0.1921,-0.1979,0,0,0,0,0,-0.2113,-0.2085,-0.2092,-0.2064,-0.2062,-0.2062,-0.2056,-0.2054,-0.2045,-0.2035,-0.2019,-0.1998,-0.1977,-0.1963,-0.1945,-0.1919,-0.189,-0.1897,-0.1895,-0.1893,-0.1881,-0.1845,-0.1838,-0.1915,-0.1915,-0.1915,0,0,-0.2101,-0.2086,-0.2072,-0.2059,-0.2053,-0.2049,-0.2056,-0.2041,-0.2034,-0.203,-0.1999,-0.1984,-0.1968,-0.194,-0.1925,-0.1931,-0.1848,-0.1892,-0.189,-0.1879,-0.1844,-0.1836,-0.1829,-0.1915,-0.1915,-0.1915,0,0,-0.2061,-0.2046,-0.2011,-0.2019,-0.2013,-0.2022,-0.2017,-0.2015,-0.2006,-0.1992,-0.1978,-0.1951,-0.1929,-0.1908,-0.1896,-0.1869,-0.1835,-0.1862,-0.184,-0.1806,-0.1799,-0.1792,-0.171,-0.1697,-0.1863,-0.1863,-0.1863,0,-0.2045,-0.2003,-0.2006,-0.1987,-0.1989,-0.2008,-0.1993,-0.1993,-0.1986,-0.1973,-0.1979,-0.1927,-0.1911,-0.1868,-0.1861,-0.1859,-0.1824,-0.1852,-0.1801,-0.1795,-0.1789,-0.1706,-0.1692,-0.1862,-0.1862,-0.1862,-0.1862,0,-0.1989,-0.1965,-0.1948,-0.193,-0.1938,-0.1928,-0.1946,-0.1941,-0.1939,-0.1938,-0.1899,-0.1883,-0.1854,-0.1843,-0.1843,-0.1788,-0.1768,-0.18,-0.1807,-0.1779,-0.1694,-0.1679,-0.186,-0.1861,-0.1861,-0.1861,0,0,-0.1922,-0.191,-0.19,-0.1891,-0.1908,-0.1905,-0.1904,-0.1902,-0.1884,-0.188,-0.1849,-0.1816,-0.1807,-0.1792,-0.1782,-0.1751,-0.1666,-0.1757,-0.1755,-0.167,-0.1549,-0.1493,-0.1471,-0.1696,-0.1694,-0.1693,-0.1494,0,-0.1873,-0.1824,-0.184,-0.1815,-0.1798,-0.1839,-0.1836,-0.1841,-0.1849,-0.1829,-0.1811,-0.178,-0.1789,-0.1769,-0.1739,-0.1699,-0.1632,-0.1714,-0.1593,-0.1588,-0.1539,-0.1455,-0.1388,-0.1203,-0.1479,-0.1477,-0.1475,0,-0.18,-0.178,-0.1737,-0.1749,-0.1745,-0.174,-0.1743,-0.1748,-0.1748,-0.1751,-0.1734,-0.1736,-0.1685,-0.1706,-0.1598,-0.1654,-0.1585,-0.1548,-0.154,-0.1487,-0.1505,-0.1283,-0.1165,-0.145,-0.1452,-0.1454,-0.1456,0,-0.1723,-0.1709,-0.1668,-0.1673,-0.1688,-0.1676,-0.1689,-0.1702,-0.1696,-0.1698,-0.1687,-0.1658,-0.1619,-0.1569,-0.151,-0.1549,-0.1382,-0.143,-0.1293,-0.1287,-0.1203,-0.1193,-0.1315,-0.1316,-0.1316,-0.1317,-0.1317,0,-0.1656,-0.1623,-0.1623,-0.1601,-0.1562,-0.1603,-0.157,-0.1592,-0.1601,-0.157,-0.1628,-0.158,-0.1586,-0.1516,-0.147,-0.1323,-0.1342,-0.1248,-0.1228,-0.119,-0.1182,-0.1397,-0.1409,-0.1309,-0.1311,-0.1312,-0.1314,0,-0.1566,-0.1565,-0.1526,-0.1524,-0.1517,-0.1488,-0.1501,-0.1484,-0.1512,-0.1477,-0.1476,-0.1489,-0.1403,-0.1382,-0.1276,-0.1238,-0.1135,-0.1068,-0.1,-0.0977,-0.1063,-0.1077,-0.0885,-0.0882,-0.0878,-0.0876,-0.0874,0,-0.1519,-0.1479,-0.1454,-0.1429,-0.142,-0.1394,-0.1375,-0.1416,-0.1403,-0.1399,-0.1361,-0.1306,-0.1238,-0.1079,-0.1025,-0.0907,-0.0976,-0.076,-0.0829,-0.1017,-0.1017,-0.1036,-0.1053,-0.0684,-0.068,-0.0677,-0.0675,0,-0.1437,-0.1417,-0.1387,-0.133,-0.1296,-0.1275,-0.1253,-0.1236,-0.1269,-0.1247,-0.1186,-0.114,-0.1007,-0.0896,-0.078,-0.0693,-0.0797,-0.0694,-0.0884,-0.0827,-0.0817,-0.0822,-0.0847,-0.0649,-0.0651,-0.0653,-0.0655,-0.0656,-0.138,-0.1338,-0.1292,-0.1241,-0.1197,-0.1156,-0.1115,-0.1102,-0.1067,-0.1007,-0.1011,-0.0944,-0.0871,-0.0702,-0.0588,-0.0514,-0.0566,-0.0535,-0.0548,-0.0563,-0.0599,-0.0587,-0.0378,-0.0379,-0.0379,-0.038,-0.0381,0,-0.1333,-0.1277,-0.1216,-0.1147,-0.1084,-0.1082,-0.1029,-0.0989,-0.0916,-0.0841,-0.0774,-0.073,-0.0614,-0.0571,-0.0441,-0.035,-0.0363,-0.0297,-0.0365,-0.0388,-0.041,-0.0445,-0.0178,-0.0178,-0.0178,-0.0178,0,0,-0.1298,-0.1226,-0.1189,-0.1064,-0.1004,-0.0907,-0.0867,-0.08,-0.0737,-0.064,-0.0614,-0.0579,-0.0589,-0.0466,-0.0336,-0.0263,-0.0314,-0.0201,-0.0356,-0.046,-0.0482,-0.0526,-0.0601,0,0,0,0,0]},{"header":{"parameterUnit":"m.s-1","parameterCategory":2,"la1":30.2991,"la2":30.254,"lo1":-89.0895,"lo2":-89.0444,"dy":0.0017,"dx":0.0017,"nx":28,"ny":28,"refTime":"2023-08-18T09:00:00:Z","depth":"2","parameterNumber":3,"parameterNumberName":"V-component_of_CURRENTS"},"data":[0,0,0,0,0,0,0,0,0,0,0,0,0,0,0,0,0,0,0,0,0,0,0,0,0,0,0,0,0,0,0,0,0,0,0,0,0,0,0,0,0,0,0,0,0,0,0,0,0,0,0,0,0,0,0,0,0,0,0.0283,0.0283,0,0.034,0.034,0.0341,0.0322,0.0321,0.032,0.0318,0.0385,0.0388,0.0391,0,0,0,0,0,0,0,0,0,0,0,0,0,0.0229,0.023,0.0283,0.0284,0.0284,0.0339,0.034,0.0341,0.0322,0.0321,0.0319,0.0318,0.0384,0.0388,0.0391,0,0,0,0,0,0,0,0,0,0,0,0,0,0.0266,0.023,0.0283,0.0281,0.0282,0.0339,0.034,0.0341,0.0323,0.0321,0.0319,0.0317,0.0383,0.0387,0.0392,0.0456,0,0,0.0405,0.0407,0,0,0,0,0,0,0,0,0.0264,0.0268,0.0281,0.0282,0.0282,0.0322,0.0346,0.038,0.0323,0.0307,0.0318,0.0316,0.0366,0.0372,0.0387,0.0459,0.0462,0.0405,0.0408,0.041,0.0411,0,0,0,0,0,0,0,0.0261,0.0266,0.0305,0.0282,0.0283,0.0302,0.0305,0.0353,0.0347,0.0309,0.0307,0.0314,0.0366,0.0382,0.0388,0.0463,0.0405,0.0409,0.0412,0.0414,0.054,0.054,0,0,0,0,0,0,0.0252,0.0263,0.0304,0.0307,0.0268,0.0304,0.0307,0.0311,0.0346,0.035,0.0315,0.0313,0.0376,0.0383,0.039,0.0407,0.041,0.0414,0.0417,0.0539,0.054,0.0541,0,0,0,0,0,0,0.0251,0.0255,0.0301,0.0286,0.0293,0.0307,0.0312,0.0313,0.0304,0.0351,0.0354,0.0301,0.0375,0.0384,0.0422,0.0411,0.0416,0.042,0.0538,0.0539,0.054,0.048,0,0,0,0,0,0,0.0249,0.0255,0.0243,0.0286,0.0294,0.0319,0.0313,0.0316,0.0312,0.0309,0.0341,0.0347,0.0374,0.0415,0.0426,0.0418,0.0424,0.0537,0.0539,0.054,0.0481,0.0479,0.0477,0,0,0,0,0,0.0247,0.024,0.0242,0.0247,0.0281,0.0319,0.0325,0.0329,0.0313,0.0312,0.0338,0.0344,0.0431,0.042,0.0433,0.0425,0.0537,0.0538,0.054,0.0482,0.0479,0.0477,0,0,0,0,0,0,0.0215,0.0239,0.0242,0.0243,0.0271,0.0315,0.0312,0.0319,0.0339,0.0328,0.0363,0.0372,0.0398,0.0431,0.0417,0.0467,0.0482,0.0486,0.0433,0.0431,0.0429,0.041,0.0427,0,0,0,0,0,0.0204,0.0197,0.0237,0.0236,0.0247,0.0276,0.0286,0.0294,0.0324,0.0328,0.035,0.0383,0.0423,0.0438,0.0478,0.0514,0.054,0.0517,0.0515,0.0513,0.0508,0.0538,0.0538,0.0546,0.0546,0.0546,0,0,0.0193,0.0203,0.02,0.0227,0.0247,0.0266,0.0276,0.0289,0.0301,0.0337,0.0346,0.0377,0.0433,0.0465,0.0479,0.0484,0.0527,0.0515,0.0512,0.0508,0.054,0.0539,0.0538,0.0547,0.0547,0.0547,0,0,0.0178,0.0177,0.0172,0.0192,0.0217,0.0241,0.0239,0.0273,0.0279,0.031,0.0334,0.036,0.0416,0.0451,0.048,0.0497,0.0516,0.0501,0.0473,0.0502,0.0501,0.0501,0.0538,0.0541,0.0498,0.0498,0.0498,0,0.0164,0.0163,0.0179,0.0187,0.0196,0.0225,0.0234,0.0258,0.0296,0.0308,0.0302,0.0376,0.0413,0.0463,0.046,0.049,0.0508,0.0472,0.0497,0.0497,0.0497,0.0536,0.054,0.0495,0.0496,0.0496,0.0496,0,0.0159,0.0152,0.0153,0.0166,0.0181,0.0192,0.0231,0.0238,0.0244,0.0273,0.0306,0.0357,0.0395,0.0412,0.044,0.0462,0.0475,0.0487,0.0494,0.0492,0.0534,0.0539,0.0491,0.0492,0.0493,0.0494,0,0,0.014,0.0147,0.0143,0.0141,0.0167,0.0183,0.0199,0.0233,0.024,0.0269,0.0285,0.0342,0.0349,0.0382,0.0415,0.0439,0.0458,0.045,0.0453,0.0471,0.052,0.0465,0.0466,0.0461,0.0461,0.0462,0.055,0,0.013,0.0131,0.0138,0.0135,0.014,0.0161,0.0176,0.0206,0.0233,0.0256,0.0305,0.0333,0.0347,0.0352,0.0378,0.044,0.0468,0.0433,0.0534,0.0538,0.0474,0.0468,0.0614,0.0698,0.0556,0.0557,0.0557,0,0.0117,0.0118,0.0116,0.0113,0.0117,0.0118,0.0135,0.0153,0.0202,0.0219,0.0247,0.0286,0.0329,0.0336,0.0424,0.0394,0.0445,0.0493,0.0498,0.0467,0.049,0.0679,0.0714,0.0567,0.0566,0.0565,0.0565,0,0.0095,0.0093,0.0085,0.0088,0.0103,0.0095,0.0096,0.0134,0.0151,0.0185,0.0199,0.0256,0.0283,0.0344,0.0421,0.042,0.0519,0.0541,0.055,0.0549,0.0704,0.0713,0.0604,0.0604,0.0604,0.0604,0.0603,0,0.008,0.0066,0.0067,0.0067,0.005,0.0061,0.0055,0.0068,0.0097,0.0129,0.0164,0.0207,0.028,0.0347,0.0416,0.0484,0.0515,0.054,0.056,0.0687,0.0693,0.0604,0.0602,0.0607,0.0606,0.0605,0.0605,0,0.0059,0.0059,0.005,0.0051,0.004,0.0026,0.0017,0.0024,0.0041,0.0082,0.0087,0.0169,0.0228,0.0303,0.0419,0.0473,0.0552,0.0573,0.0708,0.0738,0.0572,0.0567,0.0601,0.06,0.0598,0.0597,0.0597,0,0.0042,0.0039,0.0037,0.0024,0.0016,-0.0008,-0.0018,-0.001,0.0015,0.0078,0.0113,0.016,0.0225,0.0343,0.0447,0.054,0.0517,0.0712,0.0724,0.0552,0.0569,0.0565,0.0562,0.0939,0.0941,0.0942,0.0944,0,0.002,0.0026,0.0033,0.0007,-0.0016,-0.002,-0.0027,-0.0008,0.0027,0.0072,0.0157,0.0203,0.0298,0.0483,0.0555,0.0618,0.0695,0.074,0.0571,0.0868,0.0864,0.0881,0.0869,0.0958,0.0957,0.0956,0.0955,0.0954,0.0,0.0007,0.0013,-0.0013,-0.0033,-0.0017,0.0,0.0024,0.0076,0.0174,0.0204,0.0365,0.0478,0.0668,0.0673,0.0717,0.0728,0.0834,0.0834,0.0831,0.0805,0.0793,0.0873,0.0871,0.0869,0.0868,0.0866,0,-0.0014,-0.0005,-0.0018,-0.0018,-0.0014,-0.0039,0.0008,0.0061,0.0141,0.0241,0.0307,0.0502,0.0731,0.0801,0.0954,0.0944,0.0937,0.0892,0.0992,0.0984,0.0975,0.0956,0.1064,0.1063,0.1061,0.1059,0,0,-0.002,-0.0008,0.0001,0.0003,-0.0008,0.0023,0.0062,0.0127,0.0226,0.0307,0.0487,0.0667,0.0866,0.0974,0.0987,0.1064,0.0952,0.1001,0.0883,0.0994,0.098,0.1028,0.1001,0,0,0,0,0]}],[{"header":{"parameterUnit":"m.s-1","parameterCategory":2,"la1":30.2991,"la2":30.254,"lo1":-89.0895,"lo2":-89.0444,"dy":0.0017,"dx":0.0017,"nx":28,"ny":28,"refTime":"2023-08-18T09:00:00:Z","depth":"4","parameterNumber":2,"parameterNumberName":"U-component_of_CURRENTS"},"data":[0,0,0,0,0,0,0,0,0,0,0,0,0,0,0,0,0,0,0,0,0,0,0,0,0,0,0,0,0,0,0,0,0,0,0,0,0,0,0,0,0,0,0,0,0,0,0,0,0,0,0,0,0,0,0,0,0,0,-0.0694,-0.0694,0,-0.0745,-0.0746,-0.0746,-0.0776,-0.0776,-0.0776,-0.0776,-0.0871,-0.0873,-0.0876,0,0,0,0,0,0,0,0,0,0,0,0,0,-0.0663,-0.0663,-0.0694,-0.0694,-0.0695,-0.0745,-0.0746,-0.0747,-0.0776,-0.0776,-0.0776,-0.0776,-0.087,-0.0873,-0.0876,0,0,0,0,0,0,0,0,0,0,0,0,0,-0.0693,-0.0663,-0.0694,-0.0714,-0.0716,-0.0745,-0.0746,-0.0747,-0.0776,-0.0776,-0.0776,-0.0776,-0.0869,-0.0873,-0.0877,-0.0904,0,0,-0.0889,-0.089,0,0,0,0,0,0,0,0,-0.0691,-0.0695,-0.071,-0.0712,-0.0715,-0.0752,-0.0769,-0.0801,-0.0776,-0.0756,-0.0776,-0.0776,-0.0834,-0.0841,-0.0853,-0.0909,-0.0913,-0.0889,-0.0891,-0.0893,-0.0894,0,0,0,0,0,0,0,-0.0689,-0.0693,-0.0717,-0.0711,-0.0714,-0.0734,-0.0738,-0.0776,-0.0798,-0.0758,-0.0759,-0.0761,-0.0836,-0.0849,-0.0856,-0.0914,-0.0889,-0.0892,-0.0895,-0.0896,-0.1027,-0.1028,0,0,0,0,0,0,-0.0676,-0.0691,-0.0715,-0.0718,-0.07,-0.0734,-0.0739,-0.0742,-0.0796,-0.0803,-0.0761,-0.0762,-0.0843,-0.0851,-0.0859,-0.0966,-0.0893,-0.0897,-0.0899,-0.1026,-0.1027,-0.1028,0,0,0,0,0,0,-0.0675,-0.0678,-0.0713,-0.0703,-0.0709,-0.0734,-0.0738,-0.0743,-0.0777,-0.0798,-0.0807,-0.0791,-0.0843,-0.0854,-0.0876,-0.0967,-0.0899,-0.0902,-0.1024,-0.1026,-0.1027,-0.1134,0,0,0,0,0,0,-0.0674,-0.0677,-0.0679,-0.0703,-0.0709,-0.0729,-0.0738,-0.0744,-0.0776,-0.0778,-0.0827,-0.0834,-0.0844,-0.0869,-0.0879,-0.0971,-0.0905,-0.1023,-0.1025,-0.1027,-0.1129,-0.1139,-0.1147,0,0,0,0,0,-0.0673,-0.0682,-0.0679,-0.0682,-0.0709,-0.0729,-0.0735,-0.0754,-0.0777,-0.0786,-0.0803,-0.0833,-0.0891,-0.0872,-0.0884,-0.098,-0.1022,-0.1024,-0.1027,-0.1125,-0.1137,-0.1147,0,0,0,0,0,0,-0.0676,-0.0686,-0.0684,-0.0696,-0.0707,-0.0733,-0.075,-0.0769,-0.0794,-0.0807,-0.083,-0.0837,-0.0911,-0.0903,-0.0882,-0.1017,-0.0971,-0.0975,-0.1041,-0.1053,-0.1062,-0.1065,-0.0909,0,0,0,0,0,-0.0673,-0.0681,-0.069,-0.0701,-0.0708,-0.0735,-0.075,-0.0766,-0.0788,-0.0802,-0.084,-0.0877,-0.0929,-0.0951,-0.0989,-0.1043,-0.1004,-0.1113,-0.1122,-0.113,-0.1137,-0.115,-0.1162,-0.1036,-0.1036,-0.1036,0,0,-0.0673,-0.0684,-0.0686,-0.0701,-0.0718,-0.073,-0.0746,-0.0777,-0.0797,-0.0809,-0.0864,-0.092,-0.0949,-0.102,-0.1054,-0.1025,-0.1133,-0.1134,-0.1141,-0.1143,-0.1154,-0.1166,-0.1177,-0.1038,-0.1037,-0.1037,0,0,-0.0673,-0.0693,-0.069,-0.071,-0.0733,-0.0747,-0.076,-0.0802,-0.0828,-0.0863,-0.091,-0.0978,-0.1041,-0.1088,-0.1116,-0.1186,-0.1191,-0.1243,-0.1294,-0.1308,-0.1318,-0.1327,-0.1243,-0.1244,-0.1239,-0.1239,-0.124,0,-0.0671,-0.0679,-0.0693,-0.0708,-0.0729,-0.0756,-0.077,-0.0798,-0.0846,-0.0881,-0.0881,-0.1022,-0.1063,-0.1161,-0.1216,-0.1214,-0.1201,-0.1258,-0.1322,-0.133,-0.1338,-0.1249,-0.1249,-0.1245,-0.1244,-0.1244,-0.1243,0,-0.067,-0.0685,-0.0698,-0.0716,-0.0734,-0.0766,-0.0793,-0.0832,-0.0873,-0.0915,-0.1023,-0.107,-0.1158,-0.1212,-0.125,-0.137,-0.1333,-0.1342,-0.1298,-0.1357,-0.1258,-0.1256,-0.1253,-0.1251,-0.1249,-0.1248,0,0,-0.0656,-0.0684,-0.0696,-0.0698,-0.0755,-0.0762,-0.0808,-0.0855,-0.0897,-0.097,-0.1042,-0.1171,-0.1249,-0.1286,-0.1365,-0.1401,-0.1451,-0.1433,-0.1431,-0.1354,-0.1438,-0.1281,-0.1262,-0.1511,-0.1512,-0.1514,-0.1328,0,-0.0654,-0.067,-0.0693,-0.0714,-0.0725,-0.0774,-0.0822,-0.0877,-0.092,-0.1001,-0.1092,-0.1225,-0.1261,-0.1376,-0.1404,-0.1468,-0.1462,-0.1497,-0.1386,-0.138,-0.1242,-0.1261,-0.1519,-0.1326,-0.1325,-0.1325,-0.1325,0,-0.0651,-0.0664,-0.0685,-0.072,-0.0733,-0.0775,-0.0845,-0.088,-0.0994,-0.1044,-0.1155,-0.1275,-0.1403,-0.1427,-0.1452,-0.1494,-0.1487,-0.1483,-0.1475,-0.1296,-0.1222,-0.1266,-0.132,-0.132,-0.1321,-0.1321,-0.1321,0,-0.0622,-0.0657,-0.0672,-0.0693,-0.0744,-0.0794,-0.0843,-0.0934,-0.0963,-0.1135,-0.1211,-0.1324,-0.1407,-0.144,-0.1443,-0.1507,-0.1394,-0.145,-0.1253,-0.1236,-0.1387,-0.138,-0.1444,-0.1445,-0.1445,-0.1446,-0.1446,0,-0.0614,-0.0626,-0.0682,-0.0691,-0.0758,-0.0804,-0.0878,-0.094,-0.1028,-0.1045,-0.128,-0.129,-0.1442,-0.1416,-0.1417,-0.1268,-0.1342,-0.1248,-0.1197,-0.1424,-0.1424,-0.138,-0.1376,-0.1438,-0.144,-0.1441,-0.1443,0,-0.0585,-0.0611,-0.0627,-0.0699,-0.0745,-0.0804,-0.0903,-0.0906,-0.1052,-0.1077,-0.118,-0.1277,-0.1248,-0.128,-0.1253,-0.1189,-0.111,-0.1033,-0.1179,-0.1139,-0.095,-0.0953,-0.0837,-0.083,-0.0824,-0.082,-0.0816,0,-0.0566,-0.0576,-0.064,-0.0646,-0.0698,-0.0792,-0.0823,-0.093,-0.09,-0.0991,-0.0961,-0.1048,-0.1091,-0.0889,-0.0919,-0.0846,-0.0855,-0.0806,-0.1002,-0.0935,-0.0897,-0.0909,-0.0919,-0.0807,-0.0805,-0.0804,-0.0802,0,-0.0533,-0.0567,-0.0575,-0.0605,-0.0639,-0.0654,-0.0705,-0.0714,-0.0763,-0.0877,-0.0809,-0.0862,-0.0761,-0.0743,-0.0685,-0.0635,-0.0864,-0.0749,-0.0765,-0.0949,-0.0897,-0.0868,-0.0884,-0.0783,-0.0785,-0.0787,-0.0788,0,-0.052,-0.0523,-0.0525,-0.0554,-0.0537,-0.0503,-0.0581,-0.0547,-0.0578,-0.0685,-0.0577,-0.0647,-0.0661,-0.0612,-0.0514,-0.0501,-0.0554,-0.0606,-0.0631,-0.0653,-0.0689,-0.0603,-0.034,0,0,0,0,0,-0.0493,-0.0468,-0.0456,-0.0449,-0.0396,-0.0414,-0.0436,-0.0491,-0.0563,-0.0481,-0.0557,-0.048,-0.045,-0.0438,-0.0396,-0.0421,-0.0542,-0.0367,-0.0613,-0.0674,-0.0697,-0.0761,0,0,0,0,0,0,-0.0465,-0.0449,-0.0437,-0.0324,-0.0289,-0.0247,-0.0276,-0.0341,-0.0324,-0.0404,-0.0383,-0.0431,-0.0395,-0.0458,-0.0376,-0.0373,-0.0516,-0.0372,-0.0371,-0.0661,-0.0682,-0.07,-0.0774,0,0,0,0,0]},{"header":{"parameterUnit":"m.s-1","parameterCategory":2,"la1":30.2991,"la2":30.254,"lo1":-89.0895,"lo2":-89.0444,"dy":0.0017,"dx":0.0017,"nx":28,"ny":28,"refTime":"2023-08-18T09:00:00:Z","depth":"4","parameterNumber":3,"parameterNumberName":"V-component_of_CURRENTS"},"data":[0,0,0,0,0,0,0,0,0,0,0,0,0,0,0,0,0,0,0,0,0,0,0,0,0,0,0,0,0,0,0,0,0,0,0,0,0,0,0,0,0,0,0,0,0,0,0,0,0,0,0,0,0,0,0,0,0,0,-0.0494,-0.0495,0,-0.0538,-0.0539,-0.054,-0.0537,-0.0537,-0.0536,-0.0535,-0.0536,-0.0537,-0.0537,0,0,0,0,0,0,0,0,0,0,0,0,0,-0.044,-0.0441,-0.0494,-0.0495,-0.0495,-0.0538,-0.0539,-0.054,-0.0537,-0.0537,-0.0536,-0.0535,-0.0536,-0.0536,-0.0537,0,0,0,0,0,0,0,0,0,0,0,0,0,-0.0472,-0.0441,-0.0494,-0.0499,-0.05,-0.0538,-0.0539,-0.054,-0.0538,-0.0536,-0.0535,-0.0534,-0.0535,-0.0536,-0.0537,-0.0564,0,0,-0.054,-0.0541,0,0,0,0,0,0,0,0,-0.0471,-0.0474,-0.0498,-0.0499,-0.0499,-0.0531,-0.052,-0.0546,-0.0538,-0.0524,-0.0535,-0.0534,-0.0531,-0.0532,-0.0544,-0.0564,-0.0564,-0.0541,-0.0541,-0.0542,-0.0542,0,0,0,0,0,0,0,-0.0468,-0.0473,-0.0512,-0.0498,-0.0499,-0.051,-0.0513,-0.0526,-0.0532,-0.0525,-0.0525,-0.0529,-0.0531,-0.0543,-0.0544,-0.0564,-0.054,-0.0541,-0.0542,-0.0542,-0.062,-0.0622,0,0,0,0,0,0,-0.0461,-0.0471,-0.0511,-0.0514,-0.0482,-0.0511,-0.0515,-0.0522,-0.0533,-0.0534,-0.053,-0.0529,-0.0542,-0.0543,-0.0544,-0.0593,-0.0542,-0.0542,-0.0543,-0.0619,-0.0621,-0.0622,0,0,0,0,0,0,-0.046,-0.0465,-0.0509,-0.0492,-0.0499,-0.0513,-0.0521,-0.0524,-0.0541,-0.0537,-0.0537,-0.0545,-0.0541,-0.0542,-0.0569,-0.0592,-0.0543,-0.0544,-0.0617,-0.0619,-0.0621,-0.0679,0,0,0,0,0,0,-0.0458,-0.0464,-0.0476,-0.0492,-0.0499,-0.0534,-0.0522,-0.0525,-0.0545,-0.0544,-0.055,-0.0549,-0.054,-0.0568,-0.057,-0.0592,-0.0545,-0.0615,-0.0618,-0.0621,-0.0676,-0.0683,-0.069,0,0,0,0,0,-0.0456,-0.0472,-0.0476,-0.0481,-0.0512,-0.0535,-0.054,-0.0547,-0.0547,-0.0559,-0.057,-0.0549,-0.0586,-0.057,-0.0572,-0.0595,-0.0614,-0.0617,-0.0621,-0.0672,-0.0682,-0.069,0,0,0,0,0,0,-0.0456,-0.0474,-0.0478,-0.0499,-0.0517,-0.0534,-0.0551,-0.0557,-0.0577,-0.0585,-0.0573,-0.0573,-0.0607,-0.0596,-0.0578,-0.0626,-0.0595,-0.0599,-0.0634,-0.0643,-0.065,-0.0621,-0.0545,0,0,0,0,0,-0.0462,-0.048,-0.0495,-0.0516,-0.0524,-0.0542,-0.0555,-0.0567,-0.0584,-0.0592,-0.0599,-0.0609,-0.0624,-0.0628,-0.0642,-0.0669,-0.0619,-0.0685,-0.0692,-0.0698,-0.0677,-0.0647,-0.0649,-0.0633,-0.0633,-0.0633,0,0,-0.0474,-0.0482,-0.0497,-0.0518,-0.0534,-0.0559,-0.0548,-0.058,-0.0605,-0.059,-0.063,-0.064,-0.0639,-0.0672,-0.0685,-0.0664,-0.0673,-0.0702,-0.0707,-0.0683,-0.065,-0.0651,-0.0652,-0.0635,-0.0635,-0.0635,0,0,-0.0492,-0.0509,-0.0524,-0.0543,-0.057,-0.0587,-0.0597,-0.0626,-0.0639,-0.0681,-0.0678,-0.0701,-0.0725,-0.0728,-0.0731,-0.0786,-0.0718,-0.0792,-0.0798,-0.077,-0.077,-0.077,-0.0689,-0.0681,-0.0788,-0.0788,-0.0788,0,-0.0499,-0.0524,-0.0535,-0.0553,-0.0577,-0.0599,-0.0628,-0.065,-0.0688,-0.0701,-0.07,-0.0741,-0.075,-0.0771,-0.0788,-0.0801,-0.0747,-0.0766,-0.0777,-0.0775,-0.0774,-0.0692,-0.0682,-0.0792,-0.0791,-0.0791,-0.0791,0,-0.0526,-0.0552,-0.0566,-0.0598,-0.0626,-0.0661,-0.0689,-0.0721,-0.0745,-0.0762,-0.0796,-0.0808,-0.0822,-0.0837,-0.0827,-0.0828,-0.078,-0.0794,-0.0749,-0.0778,-0.069,-0.0679,-0.0796,-0.0795,-0.0794,-0.0793,0,0,-0.0525,-0.0572,-0.0582,-0.0603,-0.0657,-0.0681,-0.0729,-0.0768,-0.0794,-0.0826,-0.0851,-0.0876,-0.0873,-0.0873,-0.0869,-0.084,-0.079,-0.0804,-0.0801,-0.0711,-0.0673,-0.0584,-0.0562,-0.08,-0.0799,-0.0798,-0.0608,0,-0.0542,-0.0581,-0.0609,-0.0667,-0.0691,-0.0733,-0.0776,-0.0819,-0.0847,-0.088,-0.0885,-0.0908,-0.0889,-0.0896,-0.0869,-0.0821,-0.0765,-0.0836,-0.0668,-0.0661,-0.0569,-0.0549,-0.0795,-0.06,-0.0597,-0.0595,-0.0594,0,-0.0562,-0.0582,-0.0633,-0.0696,-0.0712,-0.0763,-0.083,-0.0867,-0.0912,-0.093,-0.0941,-0.0937,-0.0912,-0.09,-0.0784,-0.0824,-0.0741,-0.0687,-0.068,-0.0563,-0.0552,-0.057,-0.0572,-0.0574,-0.0575,-0.0577,-0.0578,0,-0.0551,-0.0608,-0.0648,-0.0672,-0.074,-0.0785,-0.0836,-0.0893,-0.0918,-0.0955,-0.0958,-0.0942,-0.0909,-0.0835,-0.0716,-0.0744,-0.0564,-0.0602,-0.0428,-0.0419,-0.0531,-0.0533,-0.0498,-0.0498,-0.0498,-0.0499,-0.0499,0,-0.0558,-0.0595,-0.0654,-0.0675,-0.0753,-0.0795,-0.0872,-0.0916,-0.0957,-0.096,-0.0977,-0.0938,-0.0884,-0.078,-0.07,-0.0502,-0.0543,-0.0396,-0.0364,-0.0558,-0.0566,-0.052,-0.0525,-0.0492,-0.0493,-0.0495,-0.0496,0,-0.0553,-0.0585,-0.0634,-0.0708,-0.0753,-0.0811,-0.0913,-0.0933,-0.0968,-0.0966,-0.0965,-0.0908,-0.075,-0.0665,-0.0512,-0.0439,-0.0304,-0.0221,-0.0379,-0.0366,-0.0177,-0.0188,-0.0011,-0.0007,-0.0003,0.0001,0.0004,0,-0.0559,-0.0575,-0.0664,-0.0708,-0.0759,-0.0848,-0.0899,-0.0958,-0.0946,-0.0914,-0.0878,-0.0751,-0.0689,-0.0391,-0.0328,-0.0144,-0.0127,-0.0048,-0.0157,-0.0139,-0.0127,-0.0144,-0.016,0.001,0.0011,0.0012,0.0013,0,-0.0561,-0.0591,-0.0629,-0.0707,-0.0775,-0.0842,-0.0898,-0.0894,-0.0892,-0.0908,-0.075,-0.0633,-0.0441,-0.03,-0.014,-0.0031,-0.0116,-0.0007,-0.0016,-0.0117,-0.0112,-0.0107,-0.0127,0.0027,0.0025,0.0024,0.0023,0,-0.0571,-0.06,-0.0634,-0.0703,-0.077,-0.0799,-0.0855,-0.0802,-0.0797,-0.0731,-0.0659,-0.0521,-0.0439,-0.0232,-0.0101,0.0028,0.004,0.0051,0.0039,0.0024,-0.0048,-0.0041,0.0178,0,0,0,0,0,-0.057,-0.0579,-0.0629,-0.0694,-0.0742,-0.0783,-0.0813,-0.0834,-0.0814,-0.0672,-0.0665,-0.0484,-0.0263,-0.0187,-0.0031,-0.0062,0.0029,0.0121,0.0027,0.0104,0.0088,0.0002,0,0,0,0,0,0,-0.0571,-0.0601,-0.0606,-0.0639,-0.0682,-0.0733,-0.0753,-0.0758,-0.0669,-0.0633,-0.0506,-0.0442,-0.0232,-0.0341,-0.0026,0.0008,-0.0029,0.0216,0.022,0.0113,0.0099,0.0086,-0.0009,0,0,0,0,0]}]]